Regional Weather Roundup
Issued by NWS Newport/Morehead, NC

Current Version | Previous Version | Text Only | Print | Product List | Glossary On
Versions: 1 2 3 4 5 6 7 8 9 10 11 12 13 14 15 16 17 18 19 20 21 22 23 24 25 26 27 28 29 30 31 32 33 34 35 36 37 38 39 40 41 42 43 44 45 46 47 48 49 50
000
ASUS42 KMHX 170110
RWRMHX
WEATHER ROUNDUP FOR EASTERN NORTH CAROLINA
NATIONAL WEATHER SERVICE NEWPORT/MOREHEAD CITY NC
900 PM EDT TUE SEP 16 2014

NOTE: "FAIR" INDICATES FEW OR NO CLOUDS BELOW 12,000 FEET
WITH NO SIGNIFICANT WEATHER AND/OR OBSTRUCTIONS TO VISIBILITY

NCZ015>017-031-032-045>047-102-103-170200-
NORTH COAST

CITY           SKY/WX    TMP DP  RH WIND       PRES   REMARKS
EDENTON        CLEAR     70  64  81 E3        29.97R
ELIZABETH CITY CLEAR     70  64  81 E7        29.97R
KITTY HAWK     CLEAR     73  62  67 E7        29.96S
MANTEO         CLEAR     73  60  65 E8        29.97S

$$

NCZ045>047-081-094-103-104-170200-
CENTRAL COAST

CITY           SKY/WX    TMP DP  RH WIND       PRES   REMARKS
FRISCO         CLOUDY    76  69  79 S10       29.96R
SWANQUARTER      N/A     73 N/A N/A NE3G9     29.91S

$$

NCZ095-097-098-100-101-170200-
SOUTHERN COAST

CITY           SKY/WX    TMP DP  RH WIND       PRES   REMARKS
BEAUFORT       CLOUDY    78  72  81 SW3       29.96R
CEDAR ISLAND     N/A     73 N/A N/A E10       30.00S
JACKSONVILLE   PTCLDY    75  71  87 S6        29.95R
NEWPORT        NOT AVBL
PINEY ISLAND   CLEAR     76  70  82 S3        29.96R
WILMINGTON     CLEAR     74  71  91 S3        29.96R


$$

NCZ011>013-027>030-043-044-078>080-089-090>093-098-170200-
COASTAL PLAIN

CITY           SKY/WX    TMP DP  RH WIND       PRES   REMARKS
AHOSKIE        PTCLDY    68  66  94 CALM      29.97R
CLINTON        PTCLDY    72  71  95 CALM      29.95S
ELIZABETHTOWN  CLEAR     73  71  93 SE3       29.96R
GOLDSBORO      CLEAR     72  71  98 CALM      29.94R
GREENVILLE     CLEAR     70  70 100 CALM      29.98R FOG
HAVELOCK       CLEAR     74  70  87 SE3       29.96S
KENANSVILLE    PTCLDY    71  69  95 CALM      29.96R
KINSTON        CLEAR     70  70 100 CALM      29.97R
NEW BERN       CLEAR     74  69  85 CALM      29.96R
RICHLANDS      PTCLDY    72  66  83 CALM      29.96R
ROANOKE RAPIDS NOT AVBL
ROCKY MOUNT    PTCLDY    69  66  90 CALM      29.96R
WASHINGTON     CLEAR     70  68  92 CALM      29.96R
WHITEVILLE     CLEAR     76  72  86 S3        29.96R

$$

AMZ130-135-150-152-154-156-158-170-250-252-270-ANZ085-086-088-633-658-670-170200-
MARINE OBSERVATIONS

STATION/POSITION TIME  TEMP    WIND        PRES    WAVE   SWELL
                       AIR SEA DIR/SP/G            HT/PER HT/PER
                 (UTC) (F)     (DEG/KT/KT) (MB)    (FT/S) (FT/S)
CHESAPEAKE LIGHT 0000   74      30/ 11/ 11 1015.4
BUOY 44014       0100   75 79   10/ 10/ 12 1014.8    2/13   2/13
DUCK             0100   74 77   60/ 12/ 13 1014.2
2E DUCK          0100                        N/A     2/13   2/13
OREGON INLET     0100   73 76   50/  7/ 10 1014.6
BUOY 44095       0100      77                N/A     2/13   2/13
20E OREGON INLET NOT AVBL
HATTERAS CG      0100   78 80  180/  4/  7 1014.8
DIAMOND BUOY     0100   76     290/  2/  4 1014.5    2/ 8   2/ 8
CAPE LOOKOUT     0000   78     190/  5/  6 1014.2
BEAUFORT LAB     0100   78 80  220/  2/  3 1014.1
30 SE NEW RIVER  0100   79 82  170/  8/ 10 1015.0    2/13   2/13
5 SE WRIGHTSVILL 0000   76 82  170/  6/  6   N/A
BUOY 41002       0003   77 82  130/ 12/ 14 1015.0    4/13   3/13
BUOY 41004       0100   79 83  360/  6/  8 1014.6    2/13   2/13

$$


USA.gov is the U.S. government's official web portal to all federal, state and local government web resources and services.